Regional Weather Roundup
Issued by NWS

Home | Current Version | Previous Version | Graphics & Text | Print | Product List | Glossary On
Versions: 1 2 3 4 5 6 7 8 9 10 11 12 13 14 15 16 17 18 19 20 21 22 23 24 25 26 27 28 29 30 31 32 33 34 35 36 37 38 39 40 41 42 43 44 45 46 47 48 49 50
000
ASUS43 KLOT 310610
RWRIL

ILLINOIS REGIONAL WEATHER ROUNDUP
NATIONAL WEATHER SERVICE CHICAGO/ROMEOVILLE IL
100 AM CDT THU JUL 31 2014

NOTE: "FAIR" INDICATES FEW OR NO CLOUDS BELOW 12,000 FEET WITH NO
SIGNIFICANT WEATHER AND/OR OBSTRUCTIONS TO VISIBILITY.

* THESE STATIONS ARE NOT UNDER NWS QUALITY CONTROL. THEY ALSO MAY NOT
  REPORT WEATHER SUCH AS PRECIPITATION OR FOG.

ILZ001-002-007-009-015-016-024-310700-
NORTHWEST ILLINOIS

CITY           SKY/WX    TMP DP  RH WIND       PRES   REMARKS
MOLINE         CLEAR     62  58  86 CALM      30.06S
6HR MIN TEMP:  61; 6HR MAX TEMP:  78;

STERLING*      CLEAR     55  52  88 CALM      30.06S
SAVANNA*       CLEAR     58  56  91 CALM      30.05S
$$

ILZ003-004-008-010-011-017-018-310700-
NORTH CENTRAL ILLINOIS

CITY           SKY/WX    TMP DP  RH WIND       PRES   REMARKS
ROCKFORD       CLEAR     59  55  87 S3        30.06F
6HR MIN TEMP:  59; 6HR MAX TEMP:  76;

FREEPORT*      CLEAR     57  55  92 SW5       30.07S
ROCHELLE*      CLEAR     54  52  93 CALM      30.06S
DE KALB*       CLEAR     57  53  85 CALM      30.06S
PERU*          CLEAR     62  59  91 NW6       30.06S
$$

ILZ005-006-012>014-019>023-310700-
NORTHEAST ILLINOIS

CITY           SKY/WX    TMP DP  RH WIND       PRES   REMARKS
CHICAGO-OHARE  CLEAR     62  55  77 S5        30.04R
6HR MIN TEMP:  62; 6HR MAX TEMP:  73;

CHICAGO-MIDWAY CLEAR     66  61  84 CALM      30.04R
6HR MIN TEMP:  66; 6HR MAX TEMP:  72;

AURORA         CLEAR     56  53  90 CALM      30.05R FOG
6HR MIN TEMP:  56; 6HR MAX TEMP:  75;

LANSING*       CLEAR     56  55  94 CALM      30.05S FOG
JOLIET*        CLEAR     58  56  95 CALM      30.06S FOG
WAUKEGAN       CLEAR     58  56  93 VRB3      30.02F
6HR MIN TEMP:  56; 6HR MAX TEMP:  65;

DUPAGE AIRPORT CLEAR     61  58  90 S5        30.04R
6HR MIN TEMP:  60; 6HR MAX TEMP:  77;

KANKAKEE*      CLEAR     59  58  97 CALM      30.06S FOG
WHEELING       CLEAR     61  56  83 CALM      30.05S
6HR MIN TEMP:  60; 6HR MAX TEMP:  70;

MORRIS*        CLEAR     60  60 100 CALM      30.04S
ROMEOVILLE*    CLEAR     59  57  93 S3        30.05S FOG
NORTHERLY ISL    N/A     64  60  87 S2          N/A
$$

LMZ740>746-310700-
SOUTHERN LAKE MICHIGAN

STATION/POSITION SKY/WX   TEMP    WIND        PRES    VSBY  WAVE
                          AIR SEA DIR/SP/G                  HT/PER
                          (F)     (DEG/KT/KT) (MB)    (MI)  (FT/S)
SOUTHERN BUOY              61 60  210/  6/  8 1016.7S         0
WAUKEGAN HARBOR            63     230/  7/  8   N/A
HARRISON CRIB              65     170/  7/  8   N/A
BURNHAM HARBOR             64      CALM  /  4   N/A
CALUMET HARBOR             65     160/  2/  2 1016.0F
MICHIGAN CITY              63     150/  3/  4   N/A
MICHIGAN CITY 6N           66 69  180/  4/  6   N/A           1
ST. JOSEPH                 65 70  180/  8/ 10   N/A           1
$$

ILZ025>027-034>036-040-047-049-050-058-095>099-310700-
WEST-CENTRAL ILLINOIS

CITY           SKY/WX    TMP DP  RH WIND       PRES   REMARKS
QUINCY         CLEAR     65  59  81 CALM      30.09S
GALESBURG*     CLEAR     59  57  94 CALM      30.07S
MACOMB*          N/A     58  57  97 W5        30.10S
JACKSONVILLE*  CLEAR     61  60  96 CALM      30.09S
PITTSFIELD*    CLEAR     61  58  91 CALM      30.10S
$$

ILZ028>032-037-038-041>044-048-051>054-059>061-310700-
CENTRAL ILLINOIS

CITY           SKY/WX    TMP DP  RH WIND       PRES   REMARKS
PONTIAC        CLEAR     57  57 100 CALM      30.06S
DECATUR        CLEAR     63  59  87 SW3       30.07S
PEORIA         CLEAR     66  58  75 CALM      30.07R
6HR MIN TEMP:  65; 6HR MAX TEMP:  80;

LACON*         CLEAR     61  58  91 CALM      30.05S
LINCOLN*       CLEAR     62  58  87 CALM      30.05S
SPRINGFIELD    CLEAR     63  60  90 SW5       30.08S
6HR MIN TEMP:  61; 6HR MAX TEMP:  78;

TAYLORVILLE    CLEAR     59  59 100 CALM      30.08S FOG
$$

ILZ033-039-045-046-055>057-062-063-310700-
EAST-CENTRAL ILLINOIS

CITY           SKY/WX    TMP DP  RH WIND       PRES   REMARKS
CHAMPAIGN      CLEAR     61  59  93 W3        30.07S
DANVILLE*      CLEAR     59  58  98 CALM      30.03F
RANTOUL*       CLEAR     64  59  85 W5        30.07S
MATTOON        CLEAR     63  60  90 CALM      30.07S
PARIS*         CLEAR     58  58  97 CALM      30.07S
$$

ILZ079-100>102-310700-
SOUTHWEST ILLINOIS

CITY           SKY/WX    TMP DP  RH WIND       PRES   REMARKS
ALTON          CLEAR     62  62 100 CALM      30.08S
BELLEVILLE     PTCLDY    64  63  99 CALM      30.07S
CAHOKIA*       PTCLDY    64  61  90 CALM      30.07S
SPARTA*        MOCLDY    61  59  94 CALM      30.09S
$$

ILZ064>066-069>071-074>076-080>082-084>086-088>090-092>094-310700-
SOUTH-CENTRAL ILLINOIS

CITY           SKY/WX    TMP DP  RH WIND       PRES   REMARKS
CARBONDALE     PTCLDY    61  59  93 CALM      30.08S
6HR MIN TEMP:  61; 6HR MAX TEMP:  74;

CAIRO*         FOG       64  60  90 CALM      30.08S VSB 1/2
EFFINGHAM*     CLEAR     61  56  84 CALM      30.08S
MARION         PTCLDY    63  61  94 CALM      30.09R
MT. VERNON     PTCLDY    61  55  82 CALM      30.09S
CENTRALIA*     PTCLDY    59  56  91 CALM      30.08S
SALEM*         PTCLDY   N/A N/A N/A CALM      30.08F
METROPOLIS*    PTCLDY    61  59  93 CALM      30.08S
$$

ILZ067-068-072-073-078-083-087-091-310700-
SOUTHEAST ILLINOIS

CITY           SKY/WX    TMP DP  RH WIND       PRES   REMARKS
LAWRENCEVILLE  PTCLDY    63  61  93 S3        30.08R
FLORA*         PTCLDY    66  60  81 W5        30.08S
FAIRFIELD*     PTCLDY    63  61  94 CALM      30.08S
HARRISBURG*    PTCLDY    60  60 100 CALM      30.09S
ROBINSON*      CLEAR     65  63  93 CALM      30.08S
$$

ABBREVIATIONS USED IN REMARKS
   TC - TEMPERATURE IN CELSIUS
  WCI - WIND CHILL INDEX
   HX - HEAT INDEX
  VSB - VISIBILITY
$$




USA.gov is the U.S. government's official web portal to all federal, state and local government web resources and services.